Preview of NWS' New Version of Forecast
This preview is not operational and should not be used for support decisions.

Regional Weather Roundup (RWR)

Issued by National Weather Service (NWS)

                            
000
ASUS46 KSEW 182210
RWRWA 

WASHINGTON REGIONAL WEATHER ROUNDUP
NATIONAL WEATHER SERVICE SEATTLE WA
300 PM PDT TUE JUN 18 2019

NOTE:"FAIR" INDICATES FEW OR NO CLOUDS BELOW 12,000 FEET WITH NO 
SIGNIFICANT WEATHER AND/OR OBSTRUCTIONS TO VISIBILITY.

WAZ507-509-555>559-182300-
SEATTLE, TACOMA, EVERETT, AND VICINITY
  
CITY           SKY/WX    TMP DP  RH WIND       PRES   REMARKS
EVERETT        CLOUDY    59  52  77 N6        30.25R                  
BOEING FIELD   CLOUDY    64  54  69 CALM      30.23S                  
RENTON         CLOUDY    64  57  78 CALM      30.23F                  
SEATAC AIRPORT CLOUDY    64  53  67 VRB5      30.23F                  
JBLM-MCCHORD   NOT AVBL                                               
PUYALLUP       CLOUDY    64  54  68 VRB6      30.24S                  
BREMERTON      CLOUDY    65  55  70 NE10      30.22S                  
JBLM-FT LEWIS  CLOUDY    65  58  78 S7        30.22F                  
TACOMA NARROWS CLOUDY    62  52  69 SE7       30.22F                  
$$
 
WAZ001-503-506-510-514-515-182300-
NORTH INTERIOR
  
CITY           SKY/WX    TMP DP  RH WIND       PRES   REMARKS
BELLINGHAM     SUNNY     67  51  56 S12G18    30.20S                  
FRIDAY HARBOR  SUNNY     78  53  41 S7        30.19F                  
EASTSOUND      MOSUNNY   68  50  52 SE9G16    30.18F                  
PORT ANGELES   SUNNY     60  50  69 W20       30.23F                  
EDIZ HOOK      FAIR      59  51  73 W18       30.23F                  
PORT TOWNSEND  CLOUDY    63  52  67 NW10      30.22F                  
NAS WHIDBEY    PTSUNNY   64  51  62 SW10      30.26F                  
ARLINGTON      CLOUDY    65  51  60 NW9       30.24R                  
BURLINGTON     PTSUNNY   68  50  52 SW14G20   30.23S                  
$$
 
WAZ020-022-039-040-504-511-512-182300-
SOUTHWEST INTERIOR
  
CITY           SKY/WX    TMP DP  RH WIND       PRES   REMARKS
SHELTON        MOSUNNY   72  50  45 SW14      30.18F                  
OLYMPIA        CLOUDY    67  50  54 VRB7      30.22F                  
CHEHALIS       CLOUDY    68  52  56 VRB6G13   30.24S HAZE             
KELSO          SUNNY     68  51  54 W14       30.25S                  
VANCOUVER      SUNNY     70  48  45 NW8G17    30.22F                  
SCAPPOOSE, OR  SUNNY     70  49  47 W12G22    30.23S                  
PORTLAND, OR   MOSUNNY   71  47  42 NW8       30.23S                  
$$
 
WAZ021-516-517-182300-
WASHINGTON COAST
  
CITY           SKY/WX    TMP DP  RH WIND       PRES   REMARKS
FORKS          PTSUNNY   62  51  67 W12G17    30.29R                  
HOQUIAM        MOSUNNY   62  52  69 W20G25    30.27F                  
ASTORIA, OR    CLOUDY    61  48  62 NW15      30.30S                  
$$
 
WAZ019-023-024-040-567>569-182300-
CASCADE MOUNTAINS AND COLUMBIA GORGE
  
CITY           SKY/WX    TMP DP  RH WIND       PRES   REMARKS
STAMPEDE PASS  CLOUDY    54  45  71 VRB7      30.22R                  
TROUTDALE, OR  SUNNY     71  49  45 VRB6      30.22F                  
HOOD RIVER, OR CLEAR     73  45  35 W13G26    30.14F                  
THE DALLES, OR SUNNY     78  48  34 W18G25    30.08S                  
$$

WAZ026-027-041>044-520-521-182300-
EAST SLOPES
  
CITY           SKY/WX    TMP DP  RH WIND       PRES   REMARKS
OMAK           SUNNY     86  43  22 S8        29.91F                  
WENATCHEE      SUNNY     83  34  17 W16       29.95F                  
ELLENSBURG     SUNNY     75  45  34 NW29G40   30.03S                  
YAKIMA         SUNNY     85  44  23 NW15      29.99F                  
SUNNYSIDE ARPT CLEAR     86  47  25 W8G17     29.97                   
YAKIMA TC      NOT AVBL                                               
$$

WAZ028-034-035-182300-
COLUMBIA BASIN
  
CITY           SKY/WX    TMP DP  RH WIND       PRES   REMARKS
EPHRATA        SUNNY     86  41  20 SW14G25   29.93F                  
MOSES LAKE     SUNNY     88  40  18 SW10G18   29.95F                  
PASCO          SUNNY     87  47  24 SW12G21   29.96F                  
RICHLAND ARPT  CLEAR     87  49  26 SW12G22   29.95F                  
HERMISTON, OR  SUNNY     86  49  27 SW10G22   29.98F                  
$$

WAZ036>038-182300-
NORTHEAST WASHINGTON
  
CITY           SKY/WX    TMP DP  RH WIND       PRES   REMARKS
SPOKANE GEIGER MOSUNNY   83  38  20 W20G38    29.97F                  
SPOKANE FELTS  MOSUNNY   83  39  21 SW8G16    29.95F                  
FAIRCHILD AFB  NOT AVBL                                               
COEURDALENE,ID MOSUNNY   80  48  32 SW6       29.98F                  
DEER PARK      MOSUNNY   82  42  24 SW13      29.96F                  
$$

WAZ029>033-182300-
SOUTHEAST WASHINGTON
  
CITY           SKY/WX    TMP DP  RH WIND       PRES   REMARKS
PULLMAN        SUNNY     76  46  34 W8G18     30.05F                  
LEWISTON, ID   MOSUNNY   83  46  27 NW15G21   29.98F                  
WALLA WALLA    MOSUNNY   84  50  30 W10G18    30.00F                  
PENDLETON, OR  SUNNY     83  47  28 W18G25    30.02F                  
$$